Wind_Speed
15 15 13 11 10 10 8 7 6 5 4 3 5 6 7 9 13 17 18 19 19 19 21 23 23 23 24 25 26 26 27 27 30 38 38 37 36 36 36 36 36 38 38
15 14 13 12 11 10 9 8 6 5 3 2 3 5 8 11 14 16 18 18 19 21 23 24 25 26 26 27 27 28 29 28 30 37 38 39 37 36 38 39 40 40 38
17 15 14 13 12 11 10 8 6 4 3 1 3 6 8 11 13 15 17 18 20 23 25 25 27 27 27 28 29 30 31 31 31 33 39 38 39 40 39 37 38 39 39
18 16 15 14 13 11 10 8 6 4 2 0 2 6 8 10 12 15 17 19 21 23 25 26 26 27 28 30 30 31 32 32 32 33 37 38 39 40 39 43 43 41 42
19 18 17 15 14 13 11 8 6 5 2 1 3 5 8 10 13 15 18 20 21 22 24 25 25 26 26 28 31 31 31 31 31 33 37 39 38 45 42 42 41 43 43
21 19 18 17 16 13 11 9 6 5 4 3 3 5 8 10 13 16 18 20 21 23 26 25 25 26 27 27 27 27 27 29 30 30 35 38 42 38 38 38 40 41 39
23 21 20 18 17 15 12 9 7 6 5 4 4 6 8 11 14 16 19 20 22 24 26 26 26 26 28 30 30 30 29 26 25 28 33 35 34 35 35 36 34 34 38
25 24 22 20 18 16 13 11 8 7 6 5 5 7 9 11 14 16 18 20 21 23 25 25 26 27 28 31 32 31 29 27 27 28 27 29 28 28 26 28 32 33 36
28 26 24 21 19 17 14 12 10 8 6 6 6 7 10 11 14 16 18 19 21 23 24 24 25 26 30 31 31 31 29 29 28 26 24 24 24 23 23 26 30 33 36
30 27 24 22 20 18 15 13 11 8 7 7 7 9 10 12 15 16 18 20 22 24 24 24 25 26 28 30 29 28 30 31 31 30 28 27 26 26 25 24 27 31 33
28 27 25 23 21 19 17 15 12 10 8 8 8 9 10 12 14 16 18 20 23 25 25 26 26 26 28 28 26 24 26 28 29 28 28 28 28 29 27 27 25 24 27
30 29 27 25 23 22 20 17 14 12 10 9 9 10 11 13 14 16 18 20 23 25 25 25 25 25 26 27 25 22 23 24 27 28 29 30 30 30 27 26 26 24 18
32 31 29 27 25 24 22 19 16 14 11 10 10 11 12 13 14 16 17 20 22 23 24 23 22 23 23 24 25 23 24 26 28 29 29 30 29 26 26 26 25 23 20
34 32 31 30 28 26 23 19 17 15 13 12 11 11 12 13 14 15 16 18 20 22 23 23 22 23 23 25 26 25 25 25 27 28 28 28 28 27 26 28 30 26 23
36 33 32 32 30 28 25 20 16 14 14 13 11 12 12 13 14 16 17 19 21 23 25 25 23 22 25 26 26 27 27 27 27 28 27 28 27 27 25 27 28 22 19
38 36 33 33 32 30 26 22 20 18 16 14 12 12 12 13 14 16 17 19 22 24 25 26 25 23 25 26 27 28 28 27 27 27 26 25 24 25 25 26 26 22 20
38 36 33 32 33 31 28 24 21 19 18 16 14 12 12 13 14 15 17 19 20 23 25 25 23 22 23 24 25 26 28 27 25 26 25 23 21 22 23 24 24 21 18
39 36 32 30 32 31 29 24 21 21 19 16 14 13 13 13 14 15 16 18 19 20 22 24 23 22 21 23 25 25 26 26 26 25 23 22 18 19 20 21 21 19 14
39 37 33 28 29 29 27 24 22 21 20 17 14 13 13 13 13 14 16 17 19 20 22 24 23 20 20 21 23 24 25 26 25 24 22 20 17 17 16 17 18 18 14
39 37 33 28 27 28 28 27 25 24 21 17 14 13 13 13 13 14 15 17 18 19 21 24 22 20 19 20 22 24 25 25 25 24 22 20 18 15 14 15 15 16 14
40 39 35 30 26 28 29 29 26 24 20 17 14 14 13 13 13 13 14 16 17 18 21 24 22 20 19 19 22 24 24 24 24 23 21 19 16 14 13 12 11 12 11
41 40 37 33 29 29 30 29 25 23 20 17 15 14 13 13 13 13 14 16 17 18 20 23 22 19 18 19 21 23 24 24 24 22 20 18 14 12 11 12 10 9 9
40 40 37 34 30 28 30 28 25 23 20 17 16 14 13 12 12 13 14 15 16 18 20 22 22 19 17 18 20 21 22 22 22 20 19 16 13 10 9 10 8 8 8
34 38 37 33 30 28 29 28 26 24 21 18 16 14 13 12 12 13 14 15 16 18 20 21 20 18 17 17 19 20 20 19 18 16 15 13 11 8 7 6 7 8 8
26 33 36 34 30 27 27 28 27 25 22 19 16 14 13 12 11 12 14 15 16 17 18 20 19 16 15 16 18 19 18 17 15 13 11 10 8 6 5 5 6 7 8
22 27 33 34 31 27 26 28 28 26 23 20 16 14 13 12 11 12 13 15 15 17 17 18 17 15 14 14 16 17 17 16 13 10 9 8 7 5 4 5 6 7 7
Wind_Direction
182 181 177 170 167 164 159 155 147 129 111 89 63 49 40 30 29 25 20 15 11 8 4 1 358 355 352 350 347 341 338 335 322 328 334 337 343 344 344 342 341 342 342
187 182 177 177 175 170 168 172 167 144 126 86 52 36 28 26 23 17 11 7 5 3 0 357 354 354 353 349 345 343 340 338 332 329 337 339 341 343 342 338 341 340 338
192 186 184 185 184 180 178 179 171 157 154 114 34 26 21 19 14 8 5 4 3 0 356 353 352 351 350 348 347 343 340 342 340 334 333 338 340 343 337 337 336 337 335
195 192 192 192 188 185 185 183 179 181 183 86 11 14 12 7 4 2 2 2 -0 356 353 352 351 351 349 347 345 344 343 342 340 337 336 335 336 338 334 336 335 339 336
199 197 194 195 193 191 191 189 192 198 207 294 338 357 359 356 357 358 359 357 354 353 353 351 350 349 347 345 343 344 342 342 341 339 336 333 333 336 338 338 336 335 335
202 199 197 199 197 194 194 195 202 210 232 273 318 340 347 348 353 353 355 351 350 350 351 350 349 346 344 344 345 343 344 344 341 336 335 332 333 337 338 337 335 336 330
203 201 202 201 199 197 198 200 211 221 240 268 301 326 335 341 348 349 349 346 348 349 348 348 348 344 343 343 346 347 347 345 340 334 333 335 336 338 335 331 333 334 328
204 205 205 204 200 200 202 205 215 225 242 264 289 314 325 333 343 345 344 344 347 347 347 347 344 345 345 345 343 343 343 343 344 344 341 337 331 332 333 331 333 333 336
207 207 206 204 202 203 206 210 218 228 242 261 284 305 318 328 339 338 340 342 343 347 348 347 342 345 348 345 342 340 342 344 346 349 346 345 343 346 349 347 345 342 337
209 208 206 205 206 207 208 214 220 230 243 265 283 301 314 325 332 334 337 338 341 344 348 347 345 347 346 345 341 343 342 344 346 348 356 359 3 1 0 356 349 345 342
210 208 207 207 208 207 210 216 222 232 246 264 282 298 309 319 325 329 335 339 340 344 345 345 345 348 347 346 345 346 344 343 346 349 354 358 359 358 0 1 0 352 345
210 208 208 207 206 206 211 216 222 233 247 263 281 295 305 315 321 327 334 338 340 342 343 345 342 348 347 349 350 350 347 347 351 353 356 356 355 358 5 7 5 2 5
209 209 208 208 208 209 213 216 223 234 248 263 281 292 302 311 317 325 332 336 338 342 344 343 340 347 347 352 353 354 355 354 355 355 355 356 355 1 6 4 4 4 9
211 211 209 209 209 210 213 218 226 236 249 262 280 290 299 306 315 322 328 333 338 343 343 344 344 346 350 355 357 1 359 358 358 356 355 357 0 6 9 7 2 4 10
212 213 211 212 212 213 216 223 231 240 249 260 276 287 297 307 314 321 328 335 339 344 344 341 346 349 355 357 359 2 359 358 358 357 358 1 4 7 11 9 5 8 17
212 214 215 214 214 215 217 220 225 233 245 256 271 283 295 302 313 322 329 336 339 344 345 344 349 352 354 357 359 357 359 357 356 358 360 3 5 7 9 10 1 15 17
216 217 216 217 217 216 216 221 228 234 243 252 266 280 294 303 313 321 328 335 339 342 341 344 347 350 351 352 356 356 354 355 355 358 359 2 3 6 11 6 2 20 31
217 219 220 221 219 218 219 223 231 236 244 251 261 278 291 299 310 318 325 333 335 337 340 343 346 348 348 350 353 351 352 353 354 354 359 0 1 1 7 4 2 13 24
215 218 219 224 223 221 220 224 232 235 238 246 254 269 281 294 304 314 323 329 333 335 338 342 343 344 346 347 349 349 350 350 351 352 356 356 357 355 4 5 358 6 16
215 218 217 219 220 219 219 224 230 233 236 242 250 265 277 290 303 312 318 323 328 330 334 337 339 342 344 345 347 348 346 349 350 351 353 353 355 356 2 2 2 6 18
215 217 217 217 219 218 219 223 230 232 236 240 247 261 276 289 298 307 313 321 325 328 330 334 336 340 341 343 345 346 345 345 348 348 350 351 353 356 4 6 6 14 25
218 216 216 215 218 219 220 225 230 231 232 235 245 259 273 285 295 305 313 320 323 326 326 331 335 338 338 342 344 344 343 344 345 346 349 350 353 0 12 11 16 25 41
221 218 217 217 219 222 222 225 229 228 228 233 243 256 272 282 293 302 311 318 322 322 324 329 330 335 336 340 342 342 342 343 343 344 345 348 354 2 15 18 32 46 47
225 221 219 218 219 223 223 225 227 227 226 232 242 254 267 278 288 299 308 316 320 320 323 328 327 332 334 339 344 344 344 344 343 345 346 349 356 6 16 34 46 52 54
226 223 219 220 221 223 223 224 226 225 225 231 240 251 263 274 284 295 307 314 317 319 322 324 324 328 334 340 344 345 346 347 347 350 353 355 0 8 27 58 58 62 64
228 224 221 222 221 222 223 223 223 222 223 229 236 247 259 269 280 292 302 309 314 319 320 321 321 327 335 339 344 346 348 350 354 356 357 3 9 28 57 69 72 75 69
Height
1549 1552 1553 1554 1556 1558 1560 1561 1562 1562 1563 1564 1564 1563 1562 1560 1557 1554 1553 1551 1550 1549 1546 1543 1539 1536 1532 1528 1524 1520 1515 1509 1501 1492 1489 1482 1476 1470 1466 1461 1455 1448 1441
1547 1549 1551 1554 1556 1557 1559 1561 1563 1562 1563 1564 1564 1563 1561 1558 1556 1554 1553 1552 1550 1547 1544 1541 1537 1533 1529 1525 1521 1516 1510 1506 1499 1488 1483 1478 1473 1468 1463 1457 1451 1446 1439
1545 1547 1550 1553 1556 1557 1559 1561 1561 1562 1563 1564 1563 1561 1559 1557 1556 1555 1554 1552 1549 1545 1542 1539 1535 1531 1527 1522 1517 1512 1506 1501 1495 1488 1479 1476 1470 1464 1458 1454 1448 1441 1435
1543 1545 1548 1552 1554 1556 1559 1559 1560 1561 1562 1562 1561 1560 1558 1557 1556 1555 1553 1551 1548 1545 1541 1537 1532 1528 1523 1519 1514 1508 1502 1497 1491 1486 1478 1472 1467 1462 1456 1449 1441 1438 1429
1540 1543 1547 1550 1553 1555 1556 1557 1559 1560 1560 1560 1560 1559 1558 1557 1556 1554 1552 1550 1547 1544 1540 1535 1531 1527 1523 1518 1511 1506 1500 1494 1489 1483 1476 1470 1464 1457 1452 1446 1440 1433 1425
1537 1541 1545 1548 1550 1552 1554 1556 1557 1558 1559 1559 1558 1558 1557 1556 1555 1553 1551 1549 1546 1542 1538 1534 1529 1525 1521 1517 1513 1507 1501 1493 1488 1482 1476 1469 1462 1457 1451 1445 1438 1430 1419
1535 1539 1542 1545 1547 1550 1552 1554 1555 1556 1557 1557 1557 1556 1556 1555 1554 1552 1550 1547 1544 1540 1536 1531 1527 1523 1517 1512 1507 1502 1497 1494 1489 1483 1475 1469 1461 1456 1449 1441 1438 1432 1423
1531 1535 1538 1542 1544 1547 1549 1552 1553 1554 1555 1555 1555 1555 1555 1554 1553 1551 1549 1546 1542 1538 1534 1529 1524 1520 1514 1508 1503 1498 1494 1489 1485 1480 1475 1468 1462 1455 1450 1442 1435 1428 1421
1525 1530 1534 1537 1540 1543 1546 1549 1551 1552 1553 1554 1554 1554 1553 1553 1551 1549 1547 1544 1541 1537 1532 1527 1523 1518 1512 1506 1500 1495 1491 1486 1482 1477 1473 1467 1460 1453 1447 1439 1433 1425 1417
1520 1525 1530 1534 1537 1540 1544 1546 1548 1550 1551 1551 1552 1552 1552 1551 1549 1547 1545 1542 1539 1535 1531 1526 1521 1516 1511 1505 1498 1492 1486 1482 1476 1472 1468 1462 1456 1450 1444 1439 1432 1425 1418
1516 1521 1526 1530 1534 1538 1541 1543 1546 1547 1548 1549 1550 1550 1550 1549 1547 1545 1543 1540 1536 1532 1528 1524 1519 1514 1509 1503 1497 1491 1486 1481 1475 1470 1464 1459 1454 1448 1442 1437 1431 1425 1419
1511 1516 1521 1526 1530 1534 1537 1540 1542 1544 1546 1547 1547 1547 1547 1546 1545 1543 1540 1537 1533 1529 1525 1521 1516 1512 1507 1501 1495 1490 1486 1480 1474 1468 1463 1457 1451 1445 1440 1435 1430 1424 1420
1506 1511 1516 1522 1526 1530 1533 1536 1539 1541 1543 1544 1544 1545 1544 1544 1542 1540 1538 1535 1531 1527 1523 1518 1514 1510 1505 1500 1494 1488 1484 1478 1473 1467 1462 1456 1451 1445 1440 1434 1430 1424 1419
1501 1506 1512 1516 1521 1525 1529 1533 1536 1538 1540 1541 1541 1542 1541 1540 1539 1537 1535 1532 1529 1525 1521 1516 1511 1507 1502 1498 1492 1487 1483 1478 1473 1467 1462 1456 1451 1445 1440 1435 1428 1421 1417
1496 1501 1506 1511 1516 1521 1525 1529 1532 1535 1537 1538 1538 1538 1538 1537 1536 1534 1532 1529 1526 1522 1517 1513 1509 1504 1499 1495 1491 1486 1482 1477 1472 1467 1461 1456 1451 1446 1441 1435 1430 1424 1419
1490 1496 1501 1506 1512 1516 1521 1524 1528 1530 1532 1534 1535 1535 1535 1534 1533 1531 1529 1526 1522 1518 1514 1510 1505 1501 1497 1493 1489 1485 1480 1476 1471 1466 1461 1456 1452 1447 1442 1437 1432 1425 1421
1484 1490 1495 1501 1506 1511 1516 1520 1523 1526 1528 1530 1531 1531 1531 1531 1529 1527 1525 1523 1519 1516 1512 1508 1503 1499 1496 1492 1489 1484 1480 1475 1470 1466 1461 1456 1452 1448 1443 1439 1433 1428 1424
1479 1485 1490 1495 1500 1506 1511 1515 1519 1521 1523 1525 1526 1527 1527 1526 1526 1524 1522 1519 1517 1513 1510 1505 1501 1497 1494 1491 1487 1483 1479 1474 1469 1465 1460 1456 1452 1448 1444 1440 1436 1431 1428
1473 1480 1486 1491 1496 1501 1507 1511 1514 1516 1519 1520 1522 1523 1523 1522 1522 1521 1519 1517 1514 1511 1507 1503 1499 1496 1492 1489 1485 1481 1477 1472 1468 1464 1459 1455 1452 1448 1444 1441 1437 1433 1429
1467 1473 1480 1486 1491 1496 1501 1505 1508 1511 1514 1516 1517 1518 1518 1518 1518 1517 1515 1513 1510 1507 1504 1500 1497 1493 1490 1487 1483 1479 1475 1470 1466 1462 1458 1454 1451 1447 1444 1441 1438 1435 1431
1460 1467 1474 1481 1485 1490 1494 1498 1502 1506 1508 1511 1513 1514 1514 1514 1513 1512 1511 1509 1507 1504 1501 1497 1494 1490 1487 1484 1480 1476 1473 1469 1464 1460 1456 1453 1449 1446 1443 1441 1439 1436 1433
1454 1461 1467 1474 1479 1483 1488 1493 1497 1500 1504 1506 1508 1509 1509 1509 1509 1508 1507 1505 1503 1500 1498 1495 1491 1487 1484 1481 1478 1474 1470 1466 1462 1458 1455 1452 1449 1446 1444 1441 1439 1437 1435
1449 1455 1461 1467 1473 1478 1483 1488 1492 1495 1498 1501 1503 1504 1505 1505 1504 1503 1503 1501 1499 1497 1494 1491 1488 1485 1482 1479 1475 1472 1468 1464 1460 1457 1453 1451 1448 1446 1444 1442 1440 1439 1437
1444 1451 1457 1463 1468 1473 1478 1482 1486 1490 1493 1496 1498 1499 1500 1500 1500 1499 1498 1497 1495 1493 1491 1488 1485 1482 1479 1476 1473 1470 1466 1463 1459 1455 1453 1450 1448 1446 1445 1443 1442 1441 1439
1440 1446 1452 1457 1462 1467 1472 1477 1481 1485 1488 1490 1493 1494 1494 1495 1495 1495 1494 1493 1492 1490 1487 1484 1482 1479 1476 1474 1471 1468 1465 1461 1458 1454 1452 1450 1448 1447 1445 1444 1443 1442 1441
1436 1441 1447 1452 1456 1460 1465 1469 1474 1478 1482 1485 1487 1488 1489 1489 1489 1489 1489 1488 1487 1486 1484 1481 1479 1476 1473 1471 1469 1466 1463 1460 1456 1454 1452 1450 1448 1447 1446 1445 1445 1444 1443